EW5925 Weather Reports


time (UTC)temp
F
wind
direction
speed
knots
gust
knots
rain 1hr
in
rain 24hr
in
rain mn
in
humidity
%
barometer
mb
20260906020107 85 10 1.7 6.1 0.00 0.01 0.01 59 1014.1
20260906015558 85 54 1.7 6.1 0.00 0.01 0.01 58 1014.1
20260906015058 85 45 1.7 6.1 0.00 0.01 0.01 58 1014.3
20260906014556 84 56 2.6 6.1 0.00 0.01 0.01 59 1014.4
20260906014057 84 323 2.6 6.1 0.00 0.01 0.01 58 1014.4
20260906013814 84 8 1.7 5.2 0.00 0.01 0.01 58 1014.5
20260906013050 84 63 1.7 5.2 0.00 0.01 0.01 59 1014.5
20260906012550 84 68 1.7 4.3 0.00 0.01 0.01 60 1014.6
20260906012050 84 48 1.7 6.1 0.00 0.01 0.01 59 1014.7
20260906011550 84 353 1.7 6.1 0.00 0.01 0.01 58 1014.8
20260906011048 83 313 2.6 7.0 0.00 0.01 0.01 57 1014.9
20260906010550 83 326 2.6 7.0 0.00 0.01 0.01 57 1015.0
20260906010028 83 47 2.6 5.2 0.00 0.01 0.01 58 1015.0
20260906005529 83 48 2.6 6.1 0.00 0.01 0.01 59 1015.1
20260906005233 83 314 2.6 6.1 0.00 0.01 0.01 58 1015.3
20260906004513 84 14 2.6 6.1 0.00 0.01 0.01 59 1015.3
20260906004007 83 55 1.7 5.2 0.00 0.01 0.01 58 1015.4
20260906003508 83 353 1.7 5.2 0.00 0.01 0.01 59 1015.5
20260906003019 83 70 1.7 4.3 0.00 0.01 0.01 59 1015.6
20260906002946 82 26 1.7 5.2 0.00 0.01 0.01 59 1015.6
20260906002000 82 66 1.7 5.2 0.00 0.01 0.01 59 1015.7
20260906001458 82 333 1.7 3.5 0.00 0.01 0.01 59 1015.8
20260906000957 82 19 1.7 4.3 0.00 0.01 0.01 60 1015.8
20260906000456 81 55 1.7 4.3 0.00 0.01 0.01 61 1015.8
20260905235954 81 58 0.9 3.5 0.00 0.01 0.01 61 1015.8
20260905235454 80 1 1.7 4.3 0.00 0.01 0.01 61 1015.9
20260905234954 80 13 1.7 4.3 0.00 0.01 0.01 62 1015.9
20260905234451 80 337 1.7 4.3 0.00 0.01 0.01 62 1015.9
20260905233954 79 13 0.9 6.1 0.00 0.01 0.01 64 1015.9
20260905233427 79 31 1.7 6.1 0.00 0.01 0.01 65 1015.7
20260905233149 78 358 1.7 6.1 0.00 0.01 0.01 65 1015.7
20260905232427 78 352 1.7 6.1 0.00 0.01 0.01 66 1015.8
20260905231926 77 35 2.6 6.1 0.00 0.01 0.01 68 1015.7
20260905231649 76 341 3.5 6.1 0.00 0.01 0.01 67 1015.6
20260905230926 76 344 3.5 8.7 0.00 0.01 0.01 69 1015.7
20260905230428 75 15 3.5 8.7 0.00 0.01 0.01 70 1015.6
20260905225924 75 25 3.5 7.0 0.00 0.01 0.01 72 1015.6
20260905225425 74 326 3.5 7.0 0.00 0.01 0.01 74 1015.8
20260905225144 74 347 2.6 5.2 0.00 0.01 0.01 77 1016.0
20260905224644 73 357 1.7 5.2 0.00 0.01 0.01 79 1016.1
20260905223924 72 1 0.9 2.6 0.00 0.01 0.01 83 1016.2
20260905223407 71 332 0.9 2.6 0.00 0.01 0.01 85 1016.2
20260905222906 71 327 0.9 2.6 0.00 0.01 0.01 86 1016.5
20260905222403 70 324 0.9 3.5 0.00 0.01 0.01 88 1016.5
20260905221904 69 330 0.9 3.5 0.00 0.01 0.01 89 1016.5
20260905221400 68 327 0.9 2.6 0.00 0.01 0.01 91 1016.5
20260905221119 68 327 0.9 2.6 0.00 0.01 0.01 92 1016.6
20260905220357 67 322 0.9 3.5 0.00 0.01 0.01 92 1016.5
20260905215859 67 229 0.9 3.5 0.00 0.01 0.01 93 1016.5
20260905215356 67 278 0.0 2.6 0.00 0.01 0.01 93 1016.5
20260905214855 66 281 0.9 1.7 0.00 0.01 0.01 94 1016.5
20260905214358 66 314 0.0 2.6 0.00 0.01 0.01 94 1016.2
20260905213850 66 314 0.9 3.5 0.00 0.01 0.01 94 1016.1
20260905213347 65 315 0.9 3.5 0.00 0.01 0.01 94 1015.9
20260905212846 65 319 0.9 3.5 0.00 0.01 0.01 95 1015.8
20260905212610 65 318 0.9 3.5 0.00 0.01 0.01 95 1015.8
20260905211836 65 324 1.7 5.2 0.00 0.01 0.01 95 1015.8
20260905211600 64 306 1.7 5.2 0.00 0.01 0.01 95 1015.8
20260905210835 64 301 1.7 3.5 0.00 0.01 0.01 95 1015.6
20260905210600 63 310 0.9 3.5 0.00 0.01 0.01 95 1015.6
20260905205832 63 335 0.0 2.6 0.00 0.01 0.01 95 1015.4
20260905205331 62 351 0.9 2.6 0.00 0.01 0.01 95 1015.5
20260905204827 62 352 0.9 2.6 0.00 0.01 0.01 95 1015.2
20260905204328 62 259 0.0 1.7 0.00 0.01 0.01 94 1015.4
20260905204027 62 258 0.0 0.0 0.00 0.01 0.01 94 1015.6
20260905203909 62 258 0.0 1.7 0.00 0.01 0.01 94 1015.5
20260905202818 62 258 0.0 0.0 0.00 0.01 0.01 94 1015.6
20260905202317 62 258 0.0 0.0 0.00 0.01 0.01 94 1015.8
20260905201750 62 258 0.0 0.0 0.00 0.01 0.01 94 1015.8
20260905201721 62 258 0.0 0.0 0.00 0.01 0.01 94 1015.9
20260905200952 62 258 0.0 0.0 0.00 0.01 0.01 94 1015.9
20260905200219 62 258 0.0 0.9 0.00 0.01 0.01 94 1015.8
20260905195722 62 258 0.0 0.9 0.00 0.01 0.01 94 1015.7
20260905195430 62 258 0.0 0.0 0.00 0.01 0.01 94 1015.9
20260905194929 62 258 0.0 0.0 0.00 0.01 0.01 94 1015.8
20260905194144 62 258 0.0 0.0 0.00 0.01 0.01 94 1015.8
20260905193644 62 258 0.0 0.0 0.00 0.01 0.01 94 1015.9
20260905193135 62 258 0.0 1.7 0.00 0.01 0.01 94 1015.9
20260905192634 62 258 0.0 1.7 0.00 0.01 0.01 94 1015.7
20260905192132 62 258 0.0 2.6 0.00 0.01 0.01 94 1015.9
20260905191630 62 258 0.9 2.6 0.00 0.01 0.01 94 1016.1
20260905191140 62 270 0.0 2.6 0.00 0.01 0.01 94 1016.0
20260905190848 62 14 0.0 0.9 0.00 0.01 0.01 94 1015.6
20260905190124 62 14 0.0 0.9 0.00 0.01 0.01 94 1015.6
20260905185623 61 14 0.0 1.7 0.00 0.01 0.01 94 1015.6
20260905185116 61 14 0.0 1.7 0.00 0.01 0.01 94 1015.5
20260905184613 61 14 0.0 1.7 0.00 0.01 0.01 94 1015.5
20260905184111 61 14 0.0 1.7 0.00 0.01 0.01 94 1015.6
20260905183613 61 10 0.0 0.9 0.00 0.01 0.01 94 1015.8
20260905183052 61 9 0.0 0.9 0.00 0.01 0.01 93 1015.9
20260905182553 61 9 0.0 0.9 0.00 0.01 0.01 93 1015.7
20260905182046 61 9 0.0 0.9 0.00 0.01 0.01 93 1015.9
20260905181555 61 9 0.0 0.9 0.00 0.01 0.01 93 1015.5
20260905181323 61 9 0.0 0.9 0.00 0.01 0.01 93 1015.4
20260905180543 61 9 0.0 1.7 0.00 0.01 0.01 93 1015.3
20260905180305 61 9 0.9 2.6 0.00 0.01 0.01 93 1015.4
20260905175541 60 10 0.0 2.6 0.00 0.01 0.01 93 1015.4
20260905175038 60 10 0.0 0.0 0.00 0.01 0.01 93 1015.3
20260905174538 60 10 0.0 0.0 0.00 0.01 0.01 93 1015.0
20260905174034 60 10 0.0 0.0 0.00 0.01 0.01 93 1014.9
20260905173531 60 10 0.0 0.0 0.00 0.01 0.01 92 1014.8
20260905173030 61 10 0.0 0.9 0.00 0.01 0.01 92 1014.8
20260905172531 61 10 0.0 0.9 0.00 0.01 0.01 92 1014.9
20260905172227 61 10 0.0 0.9 0.00 0.01 0.01 92 1014.9
20260905171438 61 10 0.0 1.7 0.00 0.02 0.01 92 1014.9
20260905170910 61 10 0.0 0.0 0.00 0.02 0.01 92 1014.8
20260905170559 61 10 0.0 0.0 0.00 0.02 0.01 92 1014.8
20260905170039 61 10 0.0 0.0 0.00 0.02 0.01 92 1014.8
20260905165251 61 10 0.0 0.0 0.00 0.02 0.01 92 1014.7
20260905164743 61 10 0.0 0.0 0.01 0.02 0.01 92 1014.8
20260905164242 62 10 0.0 0.0 0.01 0.02 0.01 92 1014.8
20260905163737 62 10 0.0 0.0 0.01 0.02 0.01 92 1014.9
20260905163234 62 10 0.0 0.0 0.01 0.02 0.01 92 1014.9
20260905162731 62 10 0.0 0.0 0.01 0.02 0.01 92 1015.1
20260905162231 62 10 0.0 0.0 0.01 0.02 0.01 92 1015.1
20260905161732 62 10 0.0 0.0 0.01 0.02 0.01 92 1015.1
20260905161231 62 10 0.0 0.0 0.01 0.02 0.01 92 1015.1
20260905160958 62 10 0.0 0.0 0.01 0.02 0.01 92 1015.2
20260905160448 62 10 0.0 0.0 0.01 0.02 0.01 92 1015.2
20260905155921 63 10 0.0 0.0 0.01 0.02 0.01 92 1015.4
20260905155807 63 10 0.0 0.0 0.01 0.02 0.01 92 1015.3
20260905154939 63 10 0.0 0.0 0.00 0.01 0.00 92 1015.4
20260905154443 63 10 0.0 0.0 0.00 0.01 0.00 92 1015.5
20260905153720 63 10 0.0 0.9 0.00 0.01 0.00 92 1015.5
20260905153153 63 10 0.0 0.9 0.00 0.01 0.00 92 1015.5
20260905152627 64 10 0.0 0.9 0.00 0.01 0.00 92 1015.6
20260905152057 64 10 0.0 1.7 0.00 0.01 0.00 92 1015.7
20260905151529 64 10 0.0 0.9 0.00 0.01 0.00 92 1015.6
20260905151006 64 10 0.0 0.0 0.00 0.01 0.00 92 1015.6
20260905150655 64 10 0.0 0.0 0.00 0.01 0.00 92 1015.7
20260905150137 64 10 0.0 0.0 0.00 0.01 0.00 92 1015.7
20260905145353 64 10 0.0 0.9 0.00 0.01 0.00 92 1015.7
20260905144855 64 10 0.0 0.9 0.00 0.01 0.00 92 1015.7
20260905144327 64 10 0.0 0.9 0.00 0.01 0.00 92 1015.6
20260905143800 64 10 0.0 0.9 0.00 0.01 0.00 91 1015.5
20260905143241 65 10 0.0 0.9 0.00 0.01 0.00 91 1015.5
20260905142713 65 10 0.0 0.9 0.00 0.01 0.00 91 1015.8
20260905142207 65 10 0.0 0.9 0.00 0.01 0.00 91 1016.0
20260905141916 66 10 0.0 0.9 0.00 0.01 0.00 91 1016.1
20260905141151 66 10 0.0 0.9 0.00 0.01 0.00 91 1016.1
20260905140648 66 10 0.0 0.9 0.00 0.01 0.00 91 1016.1
20260905140147 66 10 0.0 1.7 0.00 0.01 0.00 92 1016.1
20260905135909 66 10 0.0 1.7 0.00 0.01 0.01 92 1016.1
20260905135147 67 11 0.0 0.9 0.00 0.01 0.01 91 1016.2
20260905134641 67 11 0.0 0.9 0.00 0.01 0.01 91 1016.2
20260905134140 67 11 0.0 0.0 0.00 0.01 0.01 91 1016.1
20260905133637 67 11 0.0 0.0 0.00 0.01 0.01 91 1016.1
20260905133135 67 11 0.0 0.0 0.00 0.01 0.01 91 1016.0
20260905132635 67 11 0.0 0.9 0.00 0.01 0.01 92 1015.9
20260905132354 67 11 0.0 0.9 0.00 0.01 0.01 92 1015.9
20260905131631 67 11 0.0 0.9 0.00 0.01 0.01 92 1015.9
20260905131134 67 11 0.0 0.9 0.00 0.01 0.01 92 1016.0
20260905130610 68 11 0.0 0.0 0.00 0.01 0.01 92 1016.0
20260905130042 68 11 0.0 0.9 0.00 0.01 0.01 92 1016.0
20260905125738 68 11 0.0 0.9 0.00 0.01 0.01 92 1016.0
20260905125216 68 11 0.0 1.7 0.00 0.01 0.01 92 1016.1
20260905124419 68 11 0.0 1.7 0.00 0.01 0.01 92 1016.1
20260905123853 68 11 0.0 1.7 0.00 0.01 0.01 92 1016.1
20260905123328 68 11 0.9 4.3 0.00 0.01 0.01 92 1016.2
20260905122800 68 11 0.9 4.3 0.00 0.01 0.01 92 1016.1
20260905122500 68 23 0.9 5.2 0.00 0.01 0.01 92 1016.1
20260905121704 68 20 0.9 5.2 0.00 0.01 0.01 92 1016.1
20260905121137 68 4 0.9 6.1 0.00 0.01 0.01 92 1016.2
20260905120609 68 347 0.9 4.3 0.00 0.01 0.01 92 1016.3
20260905120316 68 3 0.9 3.5 0.00 0.01 0.01 92 1016.5
20260905115514 68 350 0.9 3.5 0.00 0.01 0.01 92 1016.5
20260905114944 69 355 0.9 3.5 0.00 0.01 0.01 92 1016.5
20260905114429 69 4 0.9 3.5 0.00 0.01 0.01 92 1016.6
20260905113901 69 6 0.9 3.5 0.00 0.01 0.01 92 1016.6
20260905113401 69 3 0.9 4.3 0.00 0.01 0.01 92 1016.6
20260905112834 69 357 0.9 4.3 0.00 0.01 0.01 92 1016.6
20260905112528 69 74 0.9 4.3 0.00 0.01 0.01 91 1016.6
20260905111820 69 4 0.9 4.3 0.00 0.01 0.01 91 1016.7
20260905111249 69 11 0.9 4.3 0.00 0.01 0.01 91 1016.7
20260905110750 69 338 1.7 4.3 0.00 0.01 0.01 91 1016.7
20260905110235 69 345 1.7 5.2 0.00 0.01 0.01 91 1016.7
20260905110159 69 335 1.7 4.3 0.00 0.01 0.01 91 1016.7
20260905110044 69 357 1.7 5.2 0.00 0.01 0.01 91 1016.7
20260905104730 69 7 1.7 4.3 0.00 0.01 0.01 91 1016.6
20260905104231 69 0 0.9 5.2 0.00 0.01 0.01 91 1016.6
20260905103730 69 357 1.7 5.2 0.00 0.01 0.01 91 1016.7
20260905103232 69 22 1.7 4.3 0.00 0.01 0.01 91 1016.6
20260905102955 69 356 1.7 4.3 0.00 0.01 0.01 91 1016.6
20260905102707 69 347 1.7 4.3 0.00 0.01 0.01 91 1016.7
20260905101725 69 12 0.9 4.3 0.00 0.01 0.01 91 1016.6
20260905101705 69 355 0.9 5.2 0.00 0.01 0.01 91 1016.6
20260905100722 69 10 0.9 5.2 0.00 0.01 0.01 91 1016.6
20260905100224 69 12 0.9 4.3 0.00 0.01 0.01 91 1016.6
20260905095716 69 313 0.9 4.3 0.00 0.01 0.01 90 1016.6
20260905095215 69 359 0.9 4.3 0.00 0.01 0.01 90 1016.7
20260905094713 69 349 1.7 4.3 0.00 0.01 0.01 90 1016.6
20260905094441 69 8 1.7 6.1 0.00 0.01 0.01 90 1016.7
20260905093645 69 354 1.7 6.1 0.00 0.01 0.01 90 1016.7
20260905093123 69 341 0.9 6.1 0.00 0.01 0.01 90 1016.7
20260905092625 70 4 0.9 6.1 0.00 0.01 0.01 90 1016.7
20260905092102 70 340 1.7 4.3 0.00 0.01 0.01 90 1016.6
20260905091605 70 347 2.6 7.8 0.00 0.01 0.01 90 1016.5
20260905091040 70 338 1.7 7.8 0.00 0.01 0.01 90 1016.5
20260905090757 70 35 1.7 5.2 0.00 0.01 0.01 89 1016.3
20260905090052 70 30 1.7 6.1 0.00 0.01 0.01 89 1016.3
20260905085536 70 8 1.7 6.1 0.00 0.01 0.01 89 1016.2
20260905085033 70 22 1.7 7.0 0.00 0.01 0.01 88 1016.1
20260905084532 70 358 1.7 7.0 0.00 0.01 0.01 88 1016.1
20260905084034 70 12 1.7 6.1 0.00 0.01 0.01 88 1016.0
20260905083532 70 355 1.7 6.1 0.00 0.01 0.01 88 1016.1
20260905083254 70 349 1.7 5.2 0.00 0.01 0.01 87 1016.0
20260905082533 71 337 1.7 4.3 0.00 0.01 0.01 87 1016.0
20260905082032 71 0 1.7 4.3 0.00 0.01 0.01 86 1016.0
20260905081534 71 337 0.9 3.5 0.00 0.01 0.01 86 1016.0
20260905081019 71 359 1.7 4.3 0.00 0.01 0.01 86 1016.0
20260905080517 71 0 2.6 7.0 0.00 0.01 0.01 85 1016.0
20260905080016 71 348 2.6 7.0 0.00 0.01 0.01 84 1016.0
20260905075517 71 355 1.7 5.2 0.00 0.01 0.01 83 1015.9
20260905075016 71 4 1.7 5.2 0.00 0.01 0.01 83 1015.9
20260905074518 72 10 1.7 6.1 0.00 0.01 0.01 81 1015.8
20260905074016 72 350 1.7 6.1 0.00 0.01 0.01 81 1015.8
20260905073515 72 0 1.7 5.2 0.00 0.01 0.01 80 1015.8
20260905073015 72 354 1.7 5.2 0.00 0.01 0.01 79 1015.8
20260905072515 73 353 1.7 5.2 0.00 0.01 0.01 79 1015.8
20260905072020 73 341 1.7 4.3 0.00 0.01 0.01 78 1015.7
20260905071513 73 338 1.7 5.2 0.00 0.01 0.01 78 1015.7
20260905071014 73 22 1.7 5.2 0.00 0.01 0.01 77 1015.7
20260905070447 74 36 1.7 6.1 0.00 0.01 0.01 77 1015.6
20260905065947 74 342 2.6 6.1 0.00 0.01 0.01 76 1015.6
20260905065658 74 343 2.6 5.2 0.00 0.01 0.01 75 1015.7
20260905065204 74 358 2.6 5.2 0.00 0.01 0.01 75 1015.6
20260905064442 75 0 1.7 5.2 0.00 0.01 0.01 75 1015.6
20260905063940 75 6 1.7 5.2 0.00 0.01 0.01 74 1015.5
20260905063439 75 6 1.7 5.2 0.00 0.01 0.01 73 1015.5
20260905062933 75 311 1.7 4.3 0.00 0.01 0.01 73 1015.4
20260905062432 76 66 1.7 4.3 0.00 0.01 0.01 71 1015.4
20260905062156 76 5 1.7 4.3 0.00 0.01 0.01 71 1015.4
20260905061654 76 34 1.7 4.3 0.00 0.01 0.01 70 1015.4
20260905060925 77 29 1.7 6.1 0.00 0.01 0.01 69 1015.4
20260905060423 78 4 1.7 6.1 0.00 0.01 0.01 68 1015.4
20260905055925 78 0 2.6 5.2 0.00 0.01 0.01 67 1015.4
20260905055413 78 6 1.7 6.1 0.00 0.01 0.01 67 1015.4
20260905054912 78 60 1.7 6.1 0.00 0.01 0.01 65 1015.5
20260905054410 79 17 2.6 7.0 0.00 0.01 0.01 64 1015.5
20260905054135 80 35 3.5 8.7 0.00 0.01 0.01 64 1015.5
20260905053411 80 343 3.5 8.7 0.00 0.01 0.01 63 1015.5
20260905052911 80 331 3.5 7.8 0.00 0.01 0.01 63 1015.5
20260905052409 80 16 2.6 7.0 0.00 0.01 0.01 63 1015.5
20260905051906 81 4 2.6 7.0 0.00 0.01 0.01 63 1015.6
20260905051404 81 358 2.6 5.2 0.00 0.01 0.01 63 1015.7
20260905050903 81 60 1.7 6.1 0.00 0.01 0.01 63 1015.6
20260905050403 81 8 1.7 6.1 0.00 0.01 0.01 63 1015.7
20260905045855 82 58 1.7 5.2 0.00 0.01 0.01 62 1015.7
20260905045353 82 7 2.6 5.2 0.00 0.01 0.01 62 1015.8
20260905044851 82 355 3.5 6.1 0.00 0.01 0.01 60 1015.8
20260905044353 82 356 2.6 6.1 0.00 0.01 0.01 60 1015.8
20260905043840 82 0 2.6 5.2 0.00 0.01 0.01 61 1015.8
20260905043600 82 38 1.7 5.2 0.00 0.01 0.01 61 1015.9
20260905042841 82 14 1.7 5.2 0.00 0.01 0.01 61 1015.9
20260905042600 82 333 1.7 7.8 0.00 0.01 0.01 61 1016.0
20260905041835 82 342 1.7 7.8 0.00 0.01 0.01 60 1016.1
20260905041336 82 43 1.7 7.8 0.00 0.01 0.01 62 1016.2
20260905040831 82 6 1.7 7.8 0.00 0.01 0.01 61 1016.5
20260905040329 82 10 1.7 7.0 0.00 0.01 0.01 60 1016.5
20260905035826 82 55 1.7 6.1 0.00 0.01 0.01 60 1016.5
20260905035811 82 27 2.6 6.1 0.00 0.01 0.01 59 1016.6
20260905034826 82 24 1.7 5.2 0.00 0.01 0.01 59 1016.7
20260905034321 82 314 1.7 6.1 0.00 0.01 0.01 60 1016.7
20260905033819 82 18 1.7 6.1 0.00 0.01 0.01 59 1016.8
20260905033318 81 22 1.7 5.2 0.00 0.01 0.01 59 1016.9
20260905033010 81 38 1.7 5.2 0.00 0.01 0.01 58 1017.1
20260905032901 81 4 2.6 5.2 0.00 0.01 0.01 58 1017.1
20260905031949 81 43 1.7 5.2 0.00 0.01 0.01 60 1017.2
20260905031421 81 60 1.7 6.1 0.00 0.01 0.01 60 1017.3
20260905030635 81 66 1.7 6.1 0.00 0.01 0.01 59 1017.4
20260905030123 81 74 2.6 6.1 0.00 0.01 0.01 62 1017.5
20260905025818 80 2 2.6 7.8 0.00 0.01 0.01 61 1017.6
20260905025053 80 13 2.6 6.1 0.00 0.01 0.01 62 1017.7
20260905024528 80 54 2.6 7.8 0.00 0.01 0.01 61 1017.9
20260905023959 80 330 1.7 7.0 0.00 0.01 0.01 62 1018.1
20260905023701 80 67 2.6 7.0 0.00 0.01 0.01 63 1018.2
20260905022907 79 354 2.6 7.8 0.00 0.01 0.01 64 1018.4
20260905022344 79 347 3.5 7.0 0.00 0.01 0.01 66 1018.5
20260905021816 79 338 3.5 7.8 0.00 0.01 0.01 65 1018.7
20260905021248 79 322 2.6 7.8 0.00 0.01 0.01 66 1018.7
20260905020731 79 356 2.6 7.8 0.00 0.01 0.01 67 1018.8